CFG3654 EDDL-LIMJ

Flight info

Callsign CFG3654
Flight time 1h 13m
Altitude 35000
Route DCT DODEN Y852 NATOR DCT TRA DCT RIPUS DCT GERSA DCT SOSON DCT ODINA DCT SRN/N0362F190 M858 VOG DCT
Aircraft A321/M-SDE3FGHIRWY/LB1

Departure

Time 2026-04-15 10:00
Airport Düsseldorf Airport (EDDL)

Arrival

Time 2026-04-15 11:14
Airport Genoa Cristoforo Colombo Airport (LIMJ)
Time Latitude Longitude Altitude Speed Heading
2026-04-15 09:19 51.27549 6.75681 127 ft 0 kts 63°
2026-04-15 09:48 51.27547 6.75673 126 ft 4 kts 63°
2026-04-15 09:48 51.27533 6.75636 126 ft 4 kts 50°
2026-04-15 09:48 51.27514 6.75610 126 ft 4 kts 10°
2026-04-15 09:49 51.27494 6.75617 127 ft 4 kts 333°
2026-04-15 09:49 51.27483 6.75626 126 ft 0 kts 333°
2026-04-15 09:52 51.27490 6.75620 127 ft 5 kts 333°
2026-04-15 09:53 51.27544 6.75577 126 ft 10 kts 333°
2026-04-15 09:53 51.27638 6.75507 124 ft 17 kts 336°
2026-04-15 09:53 51.27747 6.75424 123 ft 17 kts 333°
2026-04-15 09:53 51.27838 6.75411 124 ft 13 kts 42°
2026-04-15 09:54 51.27886 6.75512 125 ft 11 kts 53°
2026-04-15 09:54 51.27950 6.75647 127 ft 20 kts 52°
2026-04-15 09:54 51.28043 6.75838 127 ft 22 kts 52°
2026-04-15 09:54 51.28132 6.76026 126 ft 21 kts 52°
2026-04-15 09:55 51.28220 6.76211 126 ft 23 kts 53°
2026-04-15 09:55 51.28338 6.76455 126 ft 30 kts 53°
2026-04-15 09:55 51.28462 6.76720 124 ft 29 kts 53°
2026-04-15 09:55 51.28579 6.76966 127 ft 27 kts 53°
2026-04-15 09:56 51.28689 6.77197 128 ft 26 kts 52°
2026-04-15 09:56 51.28796 6.77419 128 ft 25 kts 52°
2026-04-15 09:56 51.28995 6.77837 127 ft 22 kts 53°
2026-04-15 09:57 51.29087 6.78029 131 ft 21 kts 53°
2026-04-15 09:57 51.29163 6.78186 136 ft 10 kts 46°
2026-04-15 09:57 51.29215 6.78217 137 ft 7 kts
2026-04-15 09:57 51.29251 6.78201 138 ft 5 kts 331°
2026-04-15 09:58 51.29291 6.78153 141 ft 10 kts 323°
2026-04-15 09:58 51.29324 6.78061 143 ft 10 kts 240°
2026-04-15 09:58 51.29308 6.78026 142 ft 0 kts 233°
2026-04-15 09:59 51.29297 6.78004 142 ft 13 kts 233°
2026-04-15 10:00 51.29074 6.77537 126 ft 90 kts 233°
2026-04-15 10:00 51.28572 6.76486 132 ft 145 kts 232°
2026-04-15 10:00 51.27932 6.75172 696 ft 143 kts 229°
2026-04-15 10:00 51.27340 6.73882 1357 ft 145 kts 229°
2026-04-15 10:01 51.26701 6.72510 1601 ft 165 kts 230°
2026-04-15 10:01 51.25970 6.70953 1863 ft 184 kts 230°
2026-04-15 10:01 51.25166 6.69231 2072 ft 204 kts 231°
2026-04-15 10:01 51.24276 6.67325 2269 ft 226 kts 231°
2026-04-15 10:02 51.23271 6.65219 2648 ft 246 kts 227°
2026-04-15 10:02 51.21858 6.63725 3462 ft 249 kts 195°
2026-04-15 10:02 51.20125 6.63616 4298 ft 252 kts 175°
2026-04-15 10:02 51.18369 6.63898 5179 ft 255 kts 174°
2026-04-15 10:03 51.16594 6.64203 6029 ft 258 kts 173°
2026-04-15 10:03 51.14898 6.65046 6800 ft 264 kts 149°
2026-04-15 10:03 51.13595 6.67118 7463 ft 272 kts 121°
2026-04-15 10:03 51.13065 6.70032 8146 ft 282 kts 92°
2026-04-15 10:04 51.13154 6.73187 8859 ft 287 kts 88°
2026-04-15 10:04 51.13285 6.76380 9572 ft 292 kts 87°
2026-04-15 10:04 51.13420 6.79634 10246 ft 297 kts 87°
2026-04-15 10:04 51.13556 6.83005 10568 ft 316 kts 87°
2026-04-15 10:05 51.13696 6.86621 10716 ft 338 kts 87°
2026-04-15 10:05 51.13841 6.90433 11112 ft 350 kts 87°
2026-04-15 10:05 51.13987 6.94333 11723 ft 355 kts 87°
2026-04-15 10:05 51.14134 6.98290 12387 ft 359 kts 87°
2026-04-15 10:06 51.14282 7.02279 13031 ft 363 kts 87°
2026-04-15 10:06 51.14427 7.06309 13688 ft 366 kts 87°
2026-04-15 10:06 51.14569 7.10376 14312 ft 370 kts 87°
2026-04-15 10:06 51.14710 7.14486 14891 ft 374 kts 86°
2026-04-15 10:07 51.14852 7.18637 15479 ft 377 kts 86°
2026-04-15 10:07 51.14990 7.22778 16071 ft 380 kts 86°
2026-04-15 10:07 51.15130 7.26994 16648 ft 383 kts 86°
2026-04-15 10:07 51.15273 7.31252 17239 ft 386 kts 86°
2026-04-15 10:08 51.15414 7.35530 17807 ft 389 kts 88°
2026-04-15 10:08 51.15217 7.39845 18357 ft 393 kts 100°
2026-04-15 10:08 51.14448 7.44030 18857 ft 396 kts 112°
2026-04-15 10:08 51.13142 7.47904 19308 ft 399 kts 125°
2026-04-15 10:09 51.11352 7.51292 19776 ft 402 kts 136°
2026-04-15 10:09 51.09324 7.54387 20241 ft 405 kts 136°
2026-04-15 10:09 51.07281 7.57499 20719 ft 407 kts 136°
2026-04-15 10:09 51.05232 7.60624 21204 ft 409 kts 136°
2026-04-15 10:10 51.03179 7.63766 21657 ft 411 kts 136°
2026-04-15 10:10 51.01135 7.66879 22096 ft 414 kts 137°
2026-04-15 10:10 50.99013 7.70092 22548 ft 417 kts 137°
2026-04-15 10:10 50.96861 7.73208 22978 ft 420 kts 142°
2026-04-15 10:11 50.94479 7.75806 23392 ft 423 kts 149°
2026-04-15 10:11 50.91967 7.78269 23809 ft 425 kts 149°
2026-04-15 10:11 50.89446 7.80748 24145 ft 428 kts 149°
2026-04-15 10:11 50.86906 7.83253 24478 ft 431 kts 148°
2026-04-15 10:12 50.84349 7.85776 24811 ft 434 kts 148°
2026-04-15 10:12 50.81774 7.88310 25148 ft 437 kts 149°
2026-04-15 10:12 50.79180 7.90856 25493 ft 440 kts 149°
2026-04-15 10:12 50.76573 7.93410 25812 ft 443 kts 149°
2026-04-15 10:13 50.73942 7.95980 26137 ft 446 kts 149°
2026-04-15 10:13 50.71294 7.98566 26477 ft 448 kts 149°
2026-04-15 10:13 50.68636 8.01158 26805 ft 451 kts 148°
2026-04-15 10:13 50.65954 8.03770 27113 ft 454 kts 149°
2026-04-15 10:14 50.63239 8.06333 27403 ft 456 kts 153°
2026-04-15 10:14 50.60327 8.08337 27707 ft 458 kts 162°
2026-04-15 10:14 50.57237 8.09599 27991 ft 459 kts 172°
2026-04-15 10:14 50.54059 8.10146 28277 ft 461 kts 177°
2026-04-15 10:15 50.50848 8.10546 28569 ft 464 kts 177°
2026-04-15 10:15 50.47623 8.10957 28852 ft 467 kts 177°
2026-04-15 10:15 50.44378 8.11381 29128 ft 469 kts 177°
2026-04-15 10:15 50.41107 8.11814 29402 ft 472 kts 177°
2026-04-15 10:16 50.37826 8.12250 29666 ft 474 kts 177°
2026-04-15 10:16 50.34571 8.12681 29904 ft 477 kts 176°
2026-04-15 10:16 50.31254 8.13115 30166 ft 480 kts 177°
2026-04-15 10:16 50.27918 8.13552 30400 ft 482 kts 177°
2026-04-15 10:17 50.24566 8.13991 30620 ft 485 kts 177°
2026-04-15 10:17 50.21197 8.14431 30847 ft 487 kts 177°
2026-04-15 10:17 50.18913 8.14728 30997 ft 488 kts 177°
2026-04-15 10:17 50.14431 8.15307 31440 ft 488 kts 177°
2026-04-15 10:18 50.12143 8.15603 31648 ft 488 kts 176°
2026-04-15 10:18 50.08760 8.16055 31952 ft 488 kts 176°
2026-04-15 10:18 50.05375 8.16523 32259 ft 488 kts 176°
2026-04-15 10:18 50.01992 8.17002 32568 ft 489 kts 176°
2026-04-15 10:19 49.97507 8.17645 32993 ft 489 kts 176°
2026-04-15 10:19 49.95220 8.17972 33205 ft 489 kts 176°
2026-04-15 10:19 49.91832 8.18452 33511 ft 489 kts 176°
2026-04-15 10:19 49.88447 8.18925 33802 ft 489 kts 176°
2026-04-15 10:20 49.85049 8.19394 34017 ft 491 kts 176°
2026-04-15 10:20 49.81684 8.19857 34244 ft 493 kts 176°
2026-04-15 10:20 49.78264 8.20325 34489 ft 493 kts 176°
2026-04-15 10:20 49.74848 8.20794 34751 ft 493 kts 176°
2026-04-15 10:21 49.71432 8.21263 35036 ft 492 kts 176°
2026-04-15 10:21 49.68013 8.21735 35210 ft 493 kts 176°
2026-04-15 10:21 49.64607 8.22208 35234 ft 488 kts 175°
2026-04-15 10:22 49.57860 8.23132 35236 ft 486 kts 176°
2026-04-15 10:22 49.51115 8.24043 35249 ft 486 kts 176°
2026-04-15 10:23 49.44376 8.24959 35227 ft 486 kts 176°
2026-04-15 10:23 49.37633 8.25866 35244 ft 486 kts 175°
2026-04-15 10:24 49.30898 8.26777 35228 ft 486 kts 175°
2026-04-15 10:24 49.24155 8.27686 35241 ft 486 kts 175°
2026-04-15 10:25 49.17425 8.28602 35228 ft 486 kts 175°
2026-04-15 10:25 49.10729 8.29505 35233 ft 486 kts 175°
2026-04-15 10:26 49.03945 8.30412 35236 ft 487 kts 175°
2026-04-15 10:26 48.97236 8.31244 35235 ft 487 kts 177°
2026-04-15 10:27 48.90466 8.31480 35238 ft 486 kts 181°
2026-04-15 10:27 48.83701 8.31361 35243 ft 486 kts 181°
2026-04-15 10:28 48.76929 8.31318 35239 ft 487 kts 180°
2026-04-15 10:28 48.70147 8.31410 35231 ft 488 kts 180°
2026-04-15 10:29 48.63356 8.31531 35230 ft 488 kts 180°
2026-04-15 10:29 48.56554 8.31631 35234 ft 489 kts 180°
2026-04-15 10:30 48.49754 8.31718 35232 ft 489 kts 180°
2026-04-15 10:30 48.42952 8.31805 35234 ft 489 kts 180°
2026-04-15 10:31 48.36152 8.31888 35236 ft 489 kts 180°
2026-04-15 10:31 48.29351 8.31974 35229 ft 489 kts 180°
2026-04-15 10:32 48.22550 8.32058 35227 ft 489 kts 180°
2026-04-15 10:32 48.15757 8.32427 35231 ft 489 kts 171°
2026-04-15 10:33 48.09043 8.34070 35223 ft 489 kts 170°
2026-04-15 10:33 48.02328 8.35698 35226 ft 489 kts 170°
2026-04-15 10:34 47.95650 8.37297 35231 ft 489 kts 170°
2026-04-15 10:34 47.88933 8.38905 35223 ft 489 kts 170°
2026-04-15 10:35 47.82216 8.40515 35225 ft 489 kts 170°
2026-04-15 10:35 47.75492 8.42120 35226 ft 489 kts 170°
2026-04-15 10:36 47.68776 8.43725 35229 ft 489 kts 170°
2026-04-15 10:36 47.62013 8.44957 35243 ft 489 kts 174°
2026-04-15 10:37 47.55224 8.45822 35250 ft 489 kts 175°
2026-04-15 10:37 47.48447 8.46688 35246 ft 489 kts 174°
2026-04-15 10:38 47.41678 8.47677 35246 ft 489 kts 173°
2026-04-15 10:38 47.34917 8.48708 35245 ft 489 kts 173°
2026-04-15 10:39 47.28152 8.49714 35244 ft 489 kts 173°
2026-04-15 10:39 47.21378 8.50692 35236 ft 488 kts 173°
2026-04-15 10:40 47.14611 8.51675 35233 ft 489 kts 173°
2026-04-15 10:40 47.07892 8.52652 35226 ft 489 kts 173°
2026-04-15 10:41 47.01121 8.53627 35216 ft 489 kts 173°
2026-04-15 10:41 46.94339 8.54599 35207 ft 489 kts 173°
2026-04-15 10:42 46.87567 8.55576 35200 ft 489 kts 173°
2026-04-15 10:42 46.80787 8.56549 35183 ft 489 kts 173°
2026-04-15 10:43 46.74009 8.57515 35211 ft 490 kts 173°
2026-04-15 10:43 46.67222 8.58483 35180 ft 490 kts 172°
2026-04-15 10:44 46.60435 8.59452 35167 ft 491 kts 172°
2026-04-15 10:44 46.53632 8.60418 35159 ft 491 kts 173°
2026-04-15 10:45 46.46852 8.61378 35167 ft 491 kts 172°
2026-04-15 10:45 46.40047 8.62339 35168 ft 491 kts 172°
2026-04-15 10:46 46.33231 8.63308 35163 ft 491 kts 173°
2026-04-15 10:46 46.26433 8.64277 35163 ft 490 kts 172°
2026-04-15 10:47 46.19637 8.65258 35160 ft 491 kts 172°
2026-04-15 10:47 46.12899 8.66347 35153 ft 489 kts 165°
2026-04-15 10:48 46.06556 8.69533 35152 ft 480 kts 147°
2026-04-15 10:48 46.00704 8.74141 35180 ft 480 kts 146°
2026-04-15 10:49 45.94831 8.78725 35006 ft 481 kts 146°
2026-04-15 10:49 45.91887 8.81016 34762 ft 481 kts 146°
2026-04-15 10:49 45.88944 8.83303 34523 ft 481 kts 146°
2026-04-15 10:49 45.86005 8.85583 33982 ft 481 kts 146°
2026-04-15 10:50 45.83063 8.87866 33330 ft 480 kts 146°
2026-04-15 10:50 45.80133 8.90141 32734 ft 478 kts 146°
2026-04-15 10:50 45.77210 8.92405 32141 ft 477 kts 146°
2026-04-15 10:50 45.74289 8.94666 31540 ft 475 kts 146°
2026-04-15 10:51 45.71385 8.96911 30955 ft 474 kts 147°
2026-04-15 10:51 45.68471 8.99108 30390 ft 475 kts 151°
2026-04-15 10:51 45.65369 9.00760 29802 ft 477 kts 161°
2026-04-15 10:51 45.62112 9.01636 29299 ft 476 kts 172°
2026-04-15 10:52 45.58845 9.01733 28727 ft 475 kts 181°
2026-04-15 10:52 45.55560 9.01467 28183 ft 470 kts 182°
2026-04-15 10:52 45.52325 9.01208 27911 ft 460 kts 181°
2026-04-15 10:52 45.49175 9.00962 27798 ft 446 kts 181°
2026-04-15 10:53 45.46123 9.00732 27643 ft 434 kts 181°
2026-04-15 10:53 45.43103 9.00510 27138 ft 432 kts 181°
2026-04-15 10:53 45.40107 9.00292 26631 ft 430 kts 181°
2026-04-15 10:53 45.37130 9.00072 26133 ft 427 kts 182°
2026-04-15 10:54 45.34174 8.99851 25646 ft 424 kts 182°
2026-04-15 10:54 45.31235 8.99631 25173 ft 421 kts 182°
2026-04-15 10:54 45.28354 8.99417 24719 ft 418 kts 182°
2026-04-15 10:54 45.25460 8.99201 24245 ft 415 kts 182°
2026-04-15 10:55 45.22588 8.98984 23775 ft 412 kts 182°
2026-04-15 10:55 45.19740 8.98770 23246 ft 407 kts 182°
2026-04-15 10:55 45.16930 8.98558 22780 ft 402 kts 182°
2026-04-15 10:55 45.14150 8.98345 22310 ft 397 kts 182°
2026-04-15 10:56 45.11407 8.98134 21844 ft 393 kts 182°
2026-04-15 10:56 45.08694 8.97929 21377 ft 389 kts 182°
2026-04-15 10:56 45.06004 8.97730 20908 ft 385 kts 182°
2026-04-15 10:56 45.03336 8.97533 20440 ft 383 kts 182°
2026-04-15 10:57 45.00686 8.97340 19968 ft 380 kts 182°
2026-04-15 10:57 44.95448 8.97252 19079 ft 372 kts 172°
2026-04-15 10:57 44.92896 8.97775 18665 ft 369 kts 170°
2026-04-15 10:58 44.90365 8.98304 18216 ft 366 kts 170°
2026-04-15 10:58 44.87862 8.98833 17796 ft 362 kts 170°
2026-04-15 10:58 44.85386 8.99350 17388 ft 358 kts 170°
2026-04-15 10:58 44.83759 8.99686 17131 ft 355 kts 169°
2026-04-15 10:59 44.80979 9.00294 16674 ft 350 kts 168°
2026-04-15 10:59 44.78585 9.00806 16283 ft 346 kts 169°
2026-04-15 10:59 44.76214 9.01297 15904 ft 343 kts 171°
2026-04-15 10:59 44.74651 9.01612 15650 ft 341 kts 171°
2026-04-15 11:00 44.71559 9.02231 15135 ft 337 kts 171°
2026-04-15 11:00 44.70895 9.02365 15024 ft 336 kts 169°
2026-04-15 11:01 44.69048 9.02696 14723 ft 334 kts 169°
2026-04-15 11:01 44.66742 9.03153 14340 ft 333 kts 170°
2026-04-15 11:01 44.65229 9.03471 14086 ft 332 kts 168°
2026-04-15 11:01 44.62220 9.04132 13536 ft 329 kts 169°
2026-04-15 11:02 44.59963 9.04619 12946 ft 328 kts 169°
2026-04-15 11:02 44.58440 9.04942 12332 ft 326 kts 169°
2026-04-15 11:02 44.56257 9.05397 11772 ft 314 kts 170°
2026-04-15 11:02 44.54155 9.05827 11369 ft 298 kts 168°
2026-04-15 11:03 44.52092 9.06246 10994 ft 301 kts 169°
2026-04-15 11:03 44.50025 9.06668 10604 ft 300 kts 169°
2026-04-15 11:03 44.47957 9.07091 10313 ft 296 kts 169°
2026-04-15 11:03 44.45263 9.07646 10188 ft 295 kts 169°
2026-04-15 11:04 44.43891 9.07929 10111 ft 296 kts 168°
2026-04-15 11:04 44.41177 9.08481 9590 ft 299 kts 169°
2026-04-15 11:04 44.39818 9.08735 9363 ft 296 kts 170°
2026-04-15 11:04 44.37774 9.09098 8895 ft 295 kts 171°
2026-04-15 11:05 44.35753 9.09451 8460 ft 290 kts 170°
2026-04-15 11:05 44.33763 9.09796 8051 ft 286 kts 170°
2026-04-15 11:05 44.31796 9.10133 7652 ft 283 kts 171°
2026-04-15 11:05 44.29855 9.10470 7251 ft 281 kts 171°
2026-04-15 11:06 44.27914 9.10834 6802 ft 280 kts 167°
2026-04-15 11:06 44.26152 9.11844 6400 ft 272 kts 143°
2026-04-15 11:06 44.24857 9.13728 6007 ft 268 kts 119°
2026-04-15 11:06 44.24213 9.16135 5554 ft 266 kts 96°
2026-04-15 11:07 44.24305 9.18686 5099 ft 265 kts 74°
2026-04-15 11:07 44.25153 9.20930 4645 ft 264 kts 46°
2026-04-15 11:07 44.26663 9.22254 4511 ft 253 kts 18°
2026-04-15 11:07 44.28338 9.22419 4513 ft 241 kts 352°
2026-04-15 11:08 44.29850 9.21530 4511 ft 236 kts 329°
2026-04-15 11:08 44.31157 9.20148 4515 ft 234 kts 324°
2026-04-15 11:08 44.32381 9.18773 4531 ft 220 kts 324°
2026-04-15 11:08 44.33523 9.17364 4527 ft 220 kts 311°
2026-04-15 11:09 44.34111 9.15388 4484 ft 224 kts 288°
2026-04-15 11:09 44.34547 9.13292 4244 ft 225 kts 290°
2026-04-15 11:09 44.35011 9.11237 3959 ft 217 kts 291°
2026-04-15 11:09 44.35464 9.09275 3642 ft 208 kts 290°
2026-04-15 11:10 44.35898 9.07395 3353 ft 199 kts 292°
2026-04-15 11:10 44.36311 9.05601 3077 ft 190 kts 294°
2026-04-15 11:10 44.36707 9.03878 2812 ft 183 kts 294°
2026-04-15 11:10 44.37089 9.02223 2557 ft 175 kts 294°
2026-04-15 11:11 44.37451 9.00646 2340 ft 164 kts 294°
2026-04-15 11:11 44.37791 8.99165 2103 ft 154 kts 294°
2026-04-15 11:11 44.38112 8.97773 1865 ft 148 kts 293°
2026-04-15 11:11 44.38423 8.96424 1665 ft 143 kts 294°
2026-04-15 11:12 44.38727 8.95105 1451 ft 142 kts 294°
2026-04-15 11:12 44.39033 8.93775 1255 ft 146 kts 295°
2026-04-15 11:12 44.39345 8.92410 1055 ft 147 kts 296°
2026-04-15 11:12 44.39670 8.91065 870 ft 145 kts 301°
2026-04-15 11:13 44.40042 8.89759 693 ft 143 kts 296°
2026-04-15 11:13 44.40346 8.88449 493 ft 141 kts 292°
2026-04-15 11:13 44.40608 8.87104 299 ft 145 kts 295°
2026-04-15 11:13 44.40883 8.85750 69 ft 145 kts 295°
2026-04-15 11:14 44.41141 8.84475 22 ft 111 kts 284°
2026-04-15 11:14 44.41267 8.83831 20 ft 32 kts 289°
2026-04-15 11:14 44.41386 8.83749 18 ft 14 kts 10°
2026-04-15 11:14 44.41415 8.83848 19 ft 12 kts 103°
2026-04-15 11:15 44.41395 8.83956 20 ft 11 kts 104°
2026-04-15 11:15 44.41372 8.84076 17 ft 17 kts 105°
2026-04-15 11:15 44.41333 8.84266 17 ft 20 kts 106°
2026-04-15 11:15 44.41297 8.84448 20 ft 19 kts 104°
2026-04-15 11:16 44.41263 8.84624 19 ft 18 kts 105°
2026-04-15 11:16 44.41230 8.84795 18 ft 19 kts 105°
2026-04-15 11:16 44.41221 8.84907 15 ft 9 kts 53°
2026-04-15 11:16 44.41273 8.84933 18 ft 10 kts 15°
2026-04-15 11:17 44.41337 8.84967 19 ft 8 kts 46°
2026-04-15 11:17 44.41372 8.85017 18 ft 7 kts 14°
2026-04-15 11:17 44.41412 8.85031 19 ft 2 kts 14°
2026-04-15 11:17 44.41416 8.85033 20 ft 0 kts 14°